Regional Weather Roundup
Issued by NWS Upton, NY

Current Version | Previous Version | Graphics & Text | Print | Product List | Glossary On
Versions: 1 2 3 4 5 6 7 8 9 10 11 12 13 14 15 16 17 18 19 20 21 22 23 24 25 26 27 28
000
ASUS41 KOKX 231500
RWROKX

REGIONAL WEATHER ROUNDUP
NATIONAL WEATHER SERVICE NEW YORK NY
1100 AM EDT MON OCT 23 2017

NOTE: "FAIR" INDICATES FEW OR NO CLOUDS BELOW 12,000 FEET WITH NO
SIGNIFICANT WEATHER AND/OR OBSTRUCTIONS TO VISIBILITY.

NYZ071-072-176-178-NJZ106-104-231600-
NEW YORK CITY METRO AREA

CITY           SKY/WX    TMP DP  RH WIND       PRES   REMARKS
Central Park   SUNNY     70  62  76 VRB3      30.29F
Bronx Bot Gard   N/A    N/A N/A N/A E6        30.29F
LaGuardia APRT PTSUNNY   72  62  71 SE9       30.26F
Kennedy INTL   PTSUNNY   72  64  78 SE12      30.28F
Breezy Point     N/A     66 N/A N/A S9          N/A
Newark/Liberty PTSUNNY   72  62  71 SE9       30.25F
Teterboro      PTSUNNY   71  62  73 SE8       30.25F
$$

NYZ177-179-078>081-231600-
LONG ISLAND NEW YORK

CITY           SKY/WX    TMP DP  RH WIND       PRES   REMARKS
Jones Beach      N/A     66 N/A N/A S12         N/A
Matinecock PT    N/A     68 N/A N/A N6          N/A
Farmingdale    MOSUNNY   70  63  78 S13       30.28F
MacArthur/ISP  NOT AVBL
Shirley        NOT AVBL
Mt Sinai Harb    N/A     68 N/A N/A S7          N/A
Westhampton    PTSUNNY   69  61  75 SE9       30.32F
East Hampton   CLOUDY    65  62  90 SE7       30.33S
Montauk        NOT AVBL
$$

NYZ052-065-067-231600-
HUDSON VALLEY

CITY           SKY/WX    TMP DP  RH WIND       PRES   REMARKS
White Plains   NOT AVBL
Larchmont Harb   N/A     64 N/A N/A NE7         N/A
Croton On Huds   N/A     64 N/A N/A MISG        N/A
Newburgh       CLOUDY    64  61  88 S8        30.29F
Montgomery     CLOUDY    63  58  83 N3        30.26F
Poughkeepsie   CLOUDY    65  57  75 SE8       30.27F
Albany         CLOUDY    64  56  75 SW12      30.25F
$$

NJZ001-105-106-008-010-013-015-019>022-104-231600-
NEW JERSEY

CITY           SKY/WX    TMP DP  RH WIND       PRES   REMARKS
Newark/Liberty PTSUNNY   72  62  71 SE9       30.25F
Teterboro      PTSUNNY   71  62  73 SE8       30.25F
Caldwell       CLOUDY    69  64  84 S6        30.26F
Somerville     CLOUDY    68  63  84 VRB3      30.24F
Linden         FAIR      71  61  71 S5        30.27F
Perth Amboy      N/A     66 N/A N/A E7          N/A
Sussex         CLOUDY    65  59  81 CALM      30.26F
Andover          N/A     66  61  84 SE10      30.25F
Trenton        MOSUNNY   70  63  78 S10       30.25F
Millville      CLOUDY    73  68  84 SE9       30.24F
Atlantic City  CLOUDY    73  65  75 SE13G21   30.25F
Wrightstown    PTSUNNY   72  64  73 S9        30.22F
Toms River       N/A     72  63  73 SE12      30.26F
Belmar         SUNNY     71  62  73 S10       30.27F
$$

PAZ047>061-062-071-231600-
EASTERN PENNSYLVANIA

CITY           SKY/WX    TMP DP  RH WIND       PRES   REMARKS
Philadelphia   CLOUDY    71  63  75 SE9       30.23F
Allentown      CLOUDY    66  59  78 S7        30.24F
Scranton       CLOUDY    65  59  81 S7        30.22F
$$

CTZ002-004>006-009-010-012-RIZ004-006-007-MAZ004-011-015-231600-
SOUTHERN NEW ENGLAND
 IN CT

CITY           SKY/WX    TMP DP  RH WIND       PRES   REMARKS
Bradley INTL   PTSUNNY   61  54  77 CALM      30.32F
Hartford       PTSUNNY   64  58  80 VRB3      30.31F
Danbury        PTSUNNY   66  61  84 CALM      30.30F
Wtrbury/Oxford PTSUNNY   64  59  83 S9        30.31F
Norwalk Harbor   N/A     64 N/A N/A E6          N/A
Bridgeport     MOSUNNY   68  62  81 E7        30.30F
Meriden        CLOUDY    66  59  78 VRB7      30.30F
New Haven      PTSUNNY   67  61  81 SE9       30.30F
Chester        CLOUDY    64  63  94 VRB3      30.33F
Groton         NOT AVBL
Wilimantic     CLOUDY    59  58  96 SW3       30.34F

 IN RI

CITY           SKY/WX    TMP DP  RH WIND       PRES   REMARKS
Providence     FOG       58  58 100 CALM      30.35F VSB 1/4
Block Island   MOSUNNY   66  62  87 S13       30.34F
Westerly       PTSUNNY   66  62  87 E6        30.34F
 IN MA

CITY           SKY/WX    TMP DP  RH WIND       PRES   REMARKS
Boston         FOG       55  55 100 E5        30.36F VSB<1/4
Worcester      FOG       55  54  96 SE5       30.35F VSB 1/4
Westfield      CLOUDY    54  53  97 N3        30.33S
Provincetown   MOSUNNY   64  61  90 SE8       30.36F
Nantucket      SUNNY     66  63  90 SE8       30.37F
$$

ANZ330-335-338-340-345-350-353-355-231600-
COASTAL MARINE OBSERVATIONS


STATION/POSITION TIME  SKY/WX   TEMP    WIND        PRES    VSBY  WAVE
                                AIR SEA DIR/SP/G                  HT/PER
                 (UTC)          (F)     (DEG/KT/KT) (MB)    (MI)  (FT/S)
NY HARB ENTRANCE 1350            66 65  150/ 12/ 14 1024.8          2/ 9
20 S FIRE ISLAND 1350            65 64  150/ 10/ 12 1026.0          2/ 8
GREAT SOUTH BAY  1330            64 62  140/  8/ 10   N/A
15 E BARNEGAT LI NOT AVBL
HUDSON CANYON    1350            66 65  130/ 12/ 14 1025.6          2/ 9
KINGS POINT      1430            68 65  200/  8/ 10 1025.9
EXECUTION ROCKS  1430            67      30/  4/  6   N/A
WESTERN LI SOUND 1419            66      60/  6/  8   N/A           0
CENTRAL LI SOUND 1430            66     150/ 10/ 12   N/A           1
EASTERN LI SOUND NOT AVBL
ROBBINS REEF     1430            65     160/ 12/ 13 1025.6
$$


>>>>>>>>>>>>>>>>>>>>>>>>>>>> KEY <<<<<<<<<<<<<<<<<<<<<<<<<<<
>                                                          <
>     SKY/WX - Sky Condition/Present Weather               <
>     TMP    - Temperature in Fahrenheit                   <
>     DP     - Dew Point in Fahrenheit                     <
>     RH     - Relative Humidity in Percent                <
>     WIND   - Direction (from) and Speed in MPH           <
>     PRES   - Mean Sea Level Pressure (inches of Hg)      <
>     WCI    - Wind Chill Index                            <
>     VSB    - VISIBILITY IN MILES                         <
>     HX     - HEAT INDEX                                  <
>     TC     - TEMPERATURE IN CELSIUS                      <
>     VRB    - VARIABLE WIND DIRECTION                     <
>                                                          <
>>>>>>>>>>>>>>>>>>>>>>>>>>>> KEY <<<<<<<<<<<<<<<<<<<<<<<<<<<




USA.gov is the U.S. government's official web portal to all federal, state and local government web resources and services.